星链-4482 (STARLINK-4482 )

导读

STARLINK-4482是美国SpaceX公司星链(Starlink)星座的成员,于2022年8月19日发射升空。星链计划旨在构建近地轨道巨型卫星星座,为全球提供高速低延迟宽带互联网服务。该卫星部署在约550公里近地轨道,通过组网实现全球覆盖,支持民用宽带、航空航海互联网接入等多种应用场景,是星链星座规模扩张中的一颗标准组网卫星。

基本信息
目录编号:
53530
目录名称:
STARLINK-4482
国际标识:
2022-101D
轨道中心:
EARTH
卫星名称:
星链-4482
卫星全名:
星链-4482 (STARLINK-4482 )
卫星状态:
在轨 (已飞行1398 天)
发射日期:
2022-08-19 UTC
国别 :
美国 (US)
星等 :
--
轨道信息
数据来源 国际轨道数据 AOE轨道数据
星历时间 2026-06-17T01:59:26+0800
16小时前
查看轨道信息
2026-06-11T17:00:00+0800
6天前
查看轨道信息
半长轴 6917.912km 6917.904km
偏心率 0.0001254 0.0000505
轨道倾角 53.161° 53.159°
近地点辐角 60.243° 118.485°
升交点赤经 349.548° 13.701°
平近点角 299.869° 191.876°
近地点 538.907km 539.417km
远地点 540.643km 540.117km
周期 95.438分钟 95.438分钟
每日圈数 15.088298 15.088323
详细信息
固有亮度:
5
最大亮度:
2.5
卫星平台:
Starlink v1.5
覆盖范围:
全球
运营商:
太空探索技术公司
运营商所在国:
美国
制造商(研发单位):
太空探索技术公司
制造商所在国:
美国
使用方式:
暂无
卫星简介
星链(Starlink)计划是由太空探索技术公司(SpaceX)提出的一个巨型低轨卫星互联网星座项目,计划在2019年至2024年间在太空搭建由约1.2万颗卫星组成的“星链”网络,其中1584颗将部署在地球上空550千米处的近地轨道,并从2020年开始工作。该卫星仍在工作。
2D轨道图
3D轨道图
轨道高度分析图
轨道倾角分析图
轨道综合分析图
查看轨道综合分析图